FW4346 Weather Reports


time (UTC)temp
C
wind
direction
speed
KPH
gust
KPH
rain 1hr
cm
rain 24hr
cm
rain mn
cm
humidity
%
barometer
mb
20260507223039 25 360 11.3 22.5 0.00 0.00 0.00 6 1012.2
20260507221537 25 360 12.9 22.5 0.00 0.00 0.00 5 1012.2
20260507220031 25 360 12.9 24.1 0.00 0.00 0.00 8 1012.4
20260507214526 25 360 12.9 20.9 0.00 0.00 0.00 9 1012.6
20260507213025 24 360 9.7 20.9 0.00 0.00 0.00 11 1012.9
20260507211522 24 360 8.0 20.9 0.00 0.00 0.00 12 1013.2
20260507210015 23 360 6.4 22.5 0.00 0.00 0.00 14 1013.5
20260507204515 22 360 8.0 27.4 0.00 0.00 0.00 15 1013.5
20260507203008 22 360 11.3 25.7 0.00 0.00 0.00 16 1013.9
20260507201512 22 360 12.9 24.1 0.00 0.00 0.00 17 1013.9
20260507200008 22 360 14.5 24.1 0.00 0.00 0.00 18 1014.0
20260507194620 21 360 12.9 24.1 0.00 0.00 0.00 19 1014.1
20260507193056 21 360 17.7 25.7 0.00 0.00 0.00 17 1014.2
20260507191552 20 360 12.9 22.5 0.00 0.00 0.00 22 1014.5
20260507190053 20 360 9.7 27.4 0.00 0.00 0.00 23 1014.5
20260507184545 20 360 17.7 29.0 0.00 0.00 0.00 22 1014.7
20260507183045 19 360 12.9 32.2 0.00 0.00 0.00 24 1014.6
20260507181537 18 360 17.7 27.4 0.00 0.00 0.00 27 1014.8
20260507180038 18 360 16.1 25.7 0.00 0.00 0.00 29 1014.9
20260507174537 18 360 20.9 29.0 0.00 0.00 0.00 30 1015.0
20260507173043 18 360 16.1 30.6 0.00 0.00 0.00 30 1015.0
20260507171540 18 360 16.1 29.0 0.00 0.00 0.00 31 1015.1
20260507170021 17 360 16.1 30.6 0.00 0.00 0.00 31 1015.5
20260507164517 17 360 12.9 33.8 0.00 0.00 0.00 34 1015.4
20260507163014 16 360 17.7 35.4 0.00 0.00 0.00 33 1015.5
20260507161512 16 360 19.3 32.2 0.00 0.00 0.00 35 1015.4
20260507160007 16 360 16.1 29.0 0.00 0.00 0.00 36 1015.4
20260507154502 16 360 17.7 29.0 0.00 0.00 0.00 38 1015.4
20260507153101 16 360 20.9 30.6 0.00 0.00 0.00 38 1015.5
20260507151559 15 360 14.5 25.7 0.00 0.00 0.00 41 1015.4
20260507150057 15 360 11.3 24.1 0.00 0.00 0.00 43 1015.4
20260507144551 14 360 12.9 29.0 0.00 0.00 0.00 46 1015.4
20260507143046 14 360 14.5 30.6 0.00 0.00 0.00 48 1015.2
20260507141550 13 360 8.0 20.9 0.00 0.00 0.00 51 1015.2
20260507140039 13 360 12.9 22.5 0.00 0.00 0.00 51 1015.0
20260507134536 13 360 6.4 20.9 0.00 0.00 0.00 51 1014.8
20260507133035 13 360 8.0 19.3 0.00 0.00 0.00 52 1015.1
20260507131536 13 360 4.8 17.7 0.00 0.00 0.00 54 1015.0
20260507130027 13 360 12.9 29.0 0.00 0.00 0.00 52 1014.7
20260507124524 13 360 16.1 33.8 0.00 0.00 0.00 52 1014.6
20260507123024 13 360 14.5 27.4 0.00 0.00 0.00 51 1014.6
20260507121523 14 360 12.9 27.4 0.00 0.00 0.00 51 1014.7
20260507120037 14 360 14.5 25.7 0.00 0.00 0.00 52 1014.7
20260507114520 13 360 12.9 24.1 0.00 0.00 0.00 54 1014.6
20260507113035 13 360 17.7 32.2 0.00 0.00 0.00 55 1014.5
20260507111517 14 360 19.3 32.2 0.00 0.00 0.00 55 1014.4
20260507110015 14 360 17.7 37.0 0.00 0.00 0.00 55 1014.5
20260507104514 15 360 19.3 32.2 0.00 0.00 0.00 54 1014.7
20260507103009 15 360 14.5 32.2 0.00 0.00 0.00 54 1014.9
20260507101507 15 360 16.1 35.4 0.00 0.00 0.00 53 1014.9
20260507100003 15 360 12.9 33.8 0.00 0.00 0.00 52 1014.7
20260507094501 16 360 22.5 38.6 0.00 0.00 0.00 51 1015.1
20260507093059 15 360 11.3 24.1 0.00 0.00 0.00 52 1015.0
20260507091555 16 360 14.5 27.4 0.00 0.00 0.00 50 1015.0
20260507090055 16 360 14.5 27.4 0.00 0.00 0.00 49 1014.8
20260507084553 16 360 22.5 33.8 0.00 0.00 0.00 49 1014.5
20260507083048 16 360 25.7 40.2 0.00 0.00 0.00 48 1014.4
20260507081548 17 360 27.4 49.9 0.00 0.00 0.00 47 1014.0
20260507080043 17 360 25.7 48.3 0.00 0.00 0.00 47 1014.1
20260507074542 17 360 22.5 43.5 0.00 0.00 0.00 47 1014.0
20260507073043 17 360 19.3 35.4 0.00 0.00 0.00 48 1014.1
20260507071537 17 360 22.5 35.4 0.00 0.00 0.00 47 1014.2
20260507070039 17 360 17.7 38.6 0.00 0.00 0.00 48 1014.4
20260507064542 17 360 17.7 30.6 0.00 0.00 0.00 48 1014.3
20260507063040 17 360 3.2 9.7 0.00 0.00 0.00 47 1014.4
20260507061537 17 360 8.0 29.0 0.00 0.00 0.00 45 1014.1
20260507060030 18 360 14.5 40.2 0.00 0.00 0.00 44 1013.6
20260507054530 18 360 24.1 40.2 0.00 0.00 0.00 43 1013.5
20260507053034 18 360 22.5 45.1 0.00 0.00 0.00 43 1013.5
20260507051529 18 360 24.1 51.5 0.00 0.00 0.00 43 1013.7
20260507050032 18 360 27.4 49.9 0.00 0.00 0.00 42 1013.8
20260507044528 18 360 27.4 53.1 0.00 0.00 0.00 41 1013.8
20260507043031 19 360 20.9 43.5 0.00 0.00 0.00 40 1013.7
20260507041531 19 360 9.7 41.8 0.00 0.00 0.00 40 1013.2
20260507040026 19 360 25.7 41.8 0.00 0.00 0.00 39 1013.1
20260507034532 20 360 12.9 32.2 0.00 0.00 0.00 39 1012.9
20260507033025 20 360 16.1 33.8 0.00 0.00 0.00 39 1012.8
20260507031524 20 360 19.3 38.6 0.00 0.00 0.00 38 1012.6
20260507030024 20 360 12.9 20.9 0.00 0.00 0.00 36 1012.9
20260507024523 21 360 12.9 33.8 0.00 0.00 0.00 36 1012.8
20260507023022 21 360 17.7 33.8 0.00 0.00 0.00 35 1012.4
20260507021522 21 360 17.7 32.2 0.00 0.00 0.00 35 1012.3
20260507020021 22 360 22.5 38.6 0.00 0.00 0.00 33 1011.9
20260507014524 22 360 17.7 32.2 0.00 0.00 0.00 32 1012.0
20260507013019 23 360 11.3 33.8 0.00 0.00 0.00 32 1012.1
20260507011518 23 360 9.7 22.5 0.00 0.00 0.00 31 1012.3
20260507010029 23 360 22.5 41.8 0.00 0.00 0.00 30 1012.4
20260507004517 24 360 27.4 45.1 0.00 0.00 0.00 29 1012.1
20260507003016 25 360 27.4 40.2 0.00 0.00 0.00 29 1011.8
20260507001516 25 360 25.7 43.5 0.00 0.00 0.00 28 1011.6
20260507000015 25 360 24.1 41.8 0.00 0.00 0.00 28 1011.4
20260506234532 25 360 29.0 48.3 0.00 0.00 0.00 28 1011.3
20260506233014 25 360 27.4 46.7 0.00 0.00 0.00 27 1011.1
20260506231513 26 360 27.4 46.7 0.00 0.00 0.00 26 1011.0
20260506230010 26 360 27.4 45.1 0.00 0.00 0.00 26 1011.1
20260506224522 25 360 27.4 54.7 0.00 0.00 0.00 27 1011.3